Погода в Голубовке

Россия / Приморский край     42°52′48″N   132°59′28″E
темп.,
°C
ветер,
м/с
пор.,
м/с
влажн.,
%
обл.,
%
осадки,
мм/ч
давл.,
гПа
погр.,
м
3 июля, вс
вс301:00+18ссв019699 0.0 101011
04:00+18с119523 0.0 100911
07:00+20св119113 0.0 100942
10:00+28зюз12575 0.0 1008654
13:00+31ю234418 0.0 10061602
16:00+22юз348042 0.0 1006204
19:00+24ююз227632 0.1 1005297
22:00+18зюз119894 0.1 100613
4 июля, пн
пн401:00+18с1194100 0.0 100611
04:00+18св229697 0.7 100526
07:00+20с119327 0.0 100653
10:00+27св11671 0.0 1005603
13:00+29ю226551 0.4 10051211
16:00+28юз336023 1.6 1005820
19:00+24ююз22762 0.2 1006262
22:00+17юз119826 0.2 100821
5 июля, вт
вт501:00+16ююв119817 0.0 100811
04:00+16в1198100 0.0 100913
07:00+17вюв1194100 0.0 100973
10:00+23ю1172100 0.0 1009482
13:00+28ююз325641 0.0 10091013
16:00+27ююз3357100 0.0 1008852
19:00+23ююз227316 0.0 1009414
22:00+17ююв119817 0.0 101112
6 июля, ср
ср601:00+15юв119921 0.0 101116
04:00+15в119933 0.0 101127
07:00+17всв1193100 0.0 101290
10:00+20юв1188100 0.0 1012238
13:00+22юв1283100 0.0 1012444
16:00+22ююв1286100 0.0 1011332
19:00+20ююв1293100 0.0 1011172
22:00+19юв1295100 0.0 101390
7 июля, чт
чт701:00+18юв1297100 0.0 101283
04:00+18юв1298100 0.1 1011105
07:00+19вюв1298100 0.0 1011148
10:00+19юв1497100 0.1 1011330
13:00+20юв1497100 0.1 1010397
16:00+20вюв1499100 1.1 1009322
19:00+19вюв15100100 2.2 1008336
22:00+19вюв17100100 5.3 1008502